Location: ????????
(55.7667°N, 37.4833°E)
Time: 04:37:25
(UTC+00:00)

IRIDIUM 106 - Pass Details

Date: 19 May 2025
Orbit: 776 x 779 km, 86.4° (Epoch: 19 June)

Event Time Altitude Azimuth Distance (km) Brightness Sun altitude
Exits shadow 22:59:13 16° 192° (SSW) 1,958 5.8 -11.7°
Maximum altitude 23:03:29 74° 277° (W) 815 4.4 -11.5°
Drops below altitude 10° 23:08:44 10° 3° (N) 2,345 8.0 -11.2°
Sets 23:11:06 0° 5° (N) 3,277 9.1 -11.1°
